Regional Weather Roundup
Issued by NWS State College, PA

Home | Current Version | Previous Version | Text Only | Print | Product List | Glossary On
Versions: 1 2 3 4 5 6 7 8 9 10 11 12 13 14 15 16 17 18 19 20 21 22 23 24 25 26 27 28 29 30 31 32 33 34 35 36 37 38 39 40 41 42 43 44 45 46 47 48 49 50
000
ASUS41 KCTP 010910
RWRCTP

REGIONAL WEATHER ROUNDUP
NATIONAL WEATHER SERVICE STATE COLLEGE PA
500 AM EDT WED OCT 01 2014

Note: "fair" indicates few or no clouds below 12,000 feet with no
significant weather and/or obstructions to visibility.

* = STATION THAT DOES NOT REPORT PRECIPITATION /E.G. RAIN...SNOW...ETC/
    THUNDER OR FOG.

PAZ002>004-007>009-013>016-020>023-029>032-011000-
WESTERN PENNSYLVANIA

CITY           SKY/WX    TMP DP  RH WIND       PRES   REMARKS
ERIE           CLOUDY    58  55  90 CALM      29.99S
MEADVILLE      FOG       54  53  97 N3        29.99S VSB 1/2
FRANKLIN*      CLOUDY    54  50  87 CALM      30.01S VSB<1/4
NEW CASTLE     FOG       55  55 100 N3        30.00S VSB 1/2
BEAVER COUNTY  NOT AVBL
BUTLER*        CLOUDY    54  52  94 N3        29.99S VSB 1/4
PITTSBURGH INT CLOUDY    57  56  96 N3        29.97R FOG
PITTSBURGH     FOG       56  53  90 N7        29.96R VSB 1/4
INDIANA*       CLOUDY    52  52 100 CALM      30.01S
LATROBE        FOG       50  50 100 CALM      29.98S VSB 0
WASHINGTON CO* CLOUDY    55  54  94 CALM      29.99R
$$

PAZ004>006-010>012-017>019-024>028-033>037-041-042-045-046-049>053-011000-
CENTRAL PENNSYLVANIA

CITY           SKY/WX    TMP DP  RH WIND       PRES   REMARKS
BRADFORD       FOG       48  47  96 CALM      30.00S VSB 1/4
DUBOIS         FOG       52  52 100 CALM      29.98S VSB 1/4
CLEARFIELD     FOG       54  54 100 N6        30.00R VSB 1/4
JOHNSTOWN      FOG       52  51  97 E3        29.99R VSB 1/4
ALTOONA        CLOUDY    57  57 100 CALM      29.99R FOG
STATE COLLEGE  FOG       51  51 100 CALM      29.98S VSB<1/4
WILLIAMSPORT   MOCLDY    61  57  87 E3        29.97S
SELINSGROVE    MOCLDY    59  58  96 CALM      29.98S FOG
FT INDIANTOWN  CLOUDY    57  57 100 NE1       29.99R
CAPITAL CITY   CLOUDY    61  59  93 CALM      29.98S
HARRISBURG     CLOUDY    60  59  96 NE5       29.97S
YORK           CLOUDY    61  60  97 CALM      29.98R FOG
$$

PAZ038>040-043-044-047-048-054-055-060>062-067>071-011000-
EASTERN PENNSYLVANIA

CITY           SKY/WX    TMP DP  RH WIND       PRES   REMARKS
SCRANTON       MOCLDY    60  56  86 CALM      29.99F
MOUNT POCONO   CLOUDY    57  54  89 NE3       30.02S
ALLENTOWN      MOCLDY    61  55  82 NE7       29.99S
QUAKERTOWN*    CLOUDY    59  57  94 NE3       30.00S
READING        CLOUDY    62  59  90 W5        29.98R
LANCASTER      PTCLDY    58  57  97 NE3       29.97S FOG
COATESVILLE    MOSUNNY   59  59 100 CALM      29.99R
POTTSTOWN      MOCLDY    60  58  92 NE6       29.99F
BLUE BELL      MOCLDY    61  59  94 CALM      29.97F
DOYLESTOWN     CLOUDY    58  58 100 NE3       29.98S
WILLOW GROVE   NOT AVBL
NORTH PHILA    CLOUDY    64  57  78 NE7       29.99S
PHILADELPHIA   MOCLDY    64  58  80 NE9       29.97F
$$



USA.gov is the U.S. government's official web portal to all federal, state and local government web resources and services.